EW6466 Weather Reports


Display with metric or nautical units.
time (UTC)temp
F
wind
direction
speed
MPH
gust
MPH
rain 1hr
in
rain 24hr
in
rain mn
in
humidity
%
barometer
mb
20260505224518 85 184 4.0 8.0 0.00 0.00 0.00 59 1003.8
20260505223016 85 198 1.0 7.0 0.00 0.00 0.00 59 1003.9
20260505221515 85 161 3.0 10.0 0.00 0.00 0.00 59 1004.0
20260505220014 85 160 5.0 10.0 0.00 0.00 0.00 59 1004.0
20260505214512 86 184 3.0 7.0 0.00 0.00 0.00 58 1004.2
20260505213011 87 163 3.0 9.0 0.00 0.00 0.00 55 1004.3
20260505211511 87 188 5.0 9.0 0.00 0.00 0.00 55 1004.5
20260505210006 86 202 3.0 9.0 0.00 0.00 0.00 56 1004.6
20260505204506 87 205 5.0 14.0 0.00 0.00 0.00 56 1004.9
20260505203010 86 160 5.0 10.0 0.00 0.00 0.00 57 1005.1
20260505201601 87 178 5.0 10.0 0.00 0.00 0.00 57 1005.2
20260505200058 85 215 5.0 10.0 0.00 0.00 0.00 58 1005.3
20260505194556 85 193 5.0 8.0 0.00 0.00 0.00 59 1005.6
20260505193054 85 184 3.0 11.0 0.00 0.00 0.00 60 1005.8
20260505191555 85 167 6.0 9.0 0.00 0.00 0.00 60 1006.0
20260505190055 83 153 3.0 9.0 0.00 0.00 0.00 62 1006.1
20260505184545 82 148 3.0 9.0 0.00 0.00 0.00 63 1006.3
20260505183041 81 146 4.0 10.0 0.00 0.00 0.00 66 1006.6
20260505181554 79 167 4.0 8.0 0.00 0.00 0.00 71 1007.0
20260505180036 78 234 3.0 10.0 0.00 0.00 0.00 73 1007.0
20260505174538 77 181 3.0 7.0 0.00 0.00 0.00 75 1007.3
20260505173030 74 190 2.0 5.0 0.00 0.00 0.00 81 1007.5
20260505171533 73 213 4.0 7.0 0.00 0.00 0.00 83 1007.6
20260505170023 72 238 3.0 8.0 0.00 0.00 0.00 84 1007.5
20260505164521 71 213 4.0 7.0 0.00 0.00 0.00 85 1007.4
20260505163020 71 220 4.0 8.0 0.00 0.00 0.00 85 1007.3
20260505161519 70 234 3.0 9.0 0.00 0.00 0.00 86 1007.2
20260505153032 68 155 4.0 9.0 0.00 0.00 0.00 87 1007.5
20260505151516 68 190 3.0 10.0 0.00 0.00 0.00 87 1007.4
20260505124509 66 182 5.0 10.0 0.00 0.00 0.00 87 1006.8
20260505123007 66 190 6.0 12.0 0.00 0.00 0.00 87 1006.6
20260505121506 66 194 4.0 8.0 0.00 0.00 0.00 87 1006.4
20260505120005 66 205 4.0 11.0 0.00 0.00 0.00 87 1006.2
20260505114503 67 205 5.0 10.0 0.00 0.00 0.00 87 1006.0
20260505113001 67 203 4.0 11.0 0.00 0.00 0.00 87 1006.0
20260505111602 67 238 5.0 12.0 0.00 0.00 0.00 87 1006.0
20260505110112 67 165 4.0 11.0 0.00 0.00 0.00 86 1005.9
20260505101601 67 178 2.0 11.0 0.00 0.00 0.00 86 1005.9
20260505100053 68 150 6.0 13.0 0.00 0.00 0.00 86 1006.0
20260505094551 68 120 9.0 13.0 0.00 0.00 0.00 86 1006.1
20260505093051 68 168 4.0 14.0 0.00 0.00 0.00 86 1006.2
20260505091554 68 175 6.0 10.0 0.00 0.00 0.00 86 1006.3
20260505090048 68 179 4.0 10.0 0.00 0.00 0.00 85 1006.4
20260505084558 68 193 4.0 7.0 0.00 0.00 0.00 86 1006.4
20260505083055 68 178 7.0 15.0 0.00 0.00 0.00 85 1006.7
20260505081542 68 181 6.0 11.0 0.00 0.00 0.00 85 1006.7
20260505080039 68 168 5.0 12.0 0.00 0.00 0.00 85 1006.7
20260505074537 69 188 5.0 13.0 0.00 0.00 0.00 84 1007.0
20260505073035 69 178 6.0 13.0 0.00 0.00 0.00 84 1007.1
20260505071531 69 203 6.0 13.0 0.00 0.00 0.00 83 1007.2
20260505070030 70 178 4.0 11.0 0.00 0.00 0.00 82 1007.5
20260505064532 70 178 8.0 14.0 0.00 0.00 0.00 81 1007.7
20260505063022 70 210 4.0 15.0 0.00 0.00 0.00 79 1007.9
20260505061519 71 175 6.0 16.0 0.00 0.00 0.00 79 1007.9
20260505060018 71 165 4.0 8.0 0.00 0.00 0.00 78 1008.1
20260505054530 71 180 6.0 12.0 0.00 0.00 0.00 77 1008.1
20260505053015 71 200 3.0 10.0 0.00 0.00 0.00 77 1008.0
20260505051513 72 153 4.0 10.0 0.00 0.00 0.00 76 1008.2
20260505041508 71 159 2.0 10.0 0.00 0.00 0.00 77 1008.3
20260505040008 71 145 4.0 9.0 0.00 0.00 0.00 76 1008.4
20260505034507 71 167 1.0 8.0 0.00 0.00 0.00 76 1008.5
20260505033010 72 152 3.0 9.0 0.00 0.00 0.00 75 1008.3
20260505031506 72 150 5.0 10.0 0.00 0.00 0.00 74 1008.2
20260505030017 72 167 4.0 10.0 0.00 0.00 0.00 75 1008.3
20260505024503 72 155 2.0 11.0 0.00 0.00 0.00 74 1008.3
20260505023004 72 171 2.0 9.0 0.00 0.00 0.00 74 1008.3
20260505021503 72 142 3.0 11.0 0.00 0.00 0.00 73 1008.2
20260505020002 73 179 1.0 7.0 0.00 0.00 0.00 72 1008.2
20260505014502 73 205 3.0 6.0 0.00 0.00 0.00 71 1008.1
20260505013001 74 210 2.0 6.0 0.00 0.00 0.00 71 1008.1
20260505011603 74 215 3.0 9.0 0.00 0.00 0.00 70 1008.0
20260505011501 74 170 3.0 9.0 0.00 0.00 0.00 70 1008.0
20260505010112 74 182 2.0 8.0 0.00 0.00 0.00 69 1007.9
20260505004631 75 178 5.0 10.0 0.00 0.00 0.00 68 1008.0
20260505003101 75 167 4.0 10.0 0.00 0.00 0.00 67 1008.1
20260505001557 76 159 6.0 12.0 0.00 0.00 0.00 67 1008.2
20260505000111 76 164 7.0 13.0 0.00 0.00 0.00 66 1007.9
20260504234556 77 202 6.0 13.0 0.00 0.00 0.00 65 1008.0
20260504233055 78 107 6.0 16.0 0.00 0.00 0.00 64 1008.0
20260504231620 78 86 6.0 14.0 0.00 0.00 0.00 64 1007.9
20260504230052 78 150 4.0 13.0 0.00 0.00 0.00 63 1008.3